Orbital Elements at Epoch 2459000.5 (2020-May-31.0) TDB
Reference: JPL 15 (heliocentric ecliptic J2000)
Element | Value | Uncertainty (1-sigma) | Units |
e | .07403248639551728 | 9.3132e-08 | |
a | 2.171547107792054 | 1.5383e-08 | au |
q | 2.010782076077214 | 2.012e-07 | au |
i | 1.632408788696348 | 7.8244e-06 | deg |
node | 178.8608925356 | 0.00026157 | deg |
peri | 224.9886184651066 | 0.00026345 | deg |
M | 165.6633455295806 | 3.2116e-05 | deg |
tp | 2458462.631344635629 (2018-Dec-10.13134464) | 0.00010284 | TDB |
period | 1168.832582199656 3.20 | 1.242e-05 3.4e-08 | d yr |
n | .3079996275621499 | 3.2728e-09 | deg/d |
Q | 2.332312139506894 | 1.6522e-08 | au |
|
| | Orbit Determination Parameters
Additional Information
|